No particular awareness of the weather is required.    There are no Weather-warnings


Meteo18 Weather Cam more information Meteo18 Weather Cam


Thunder radar more information blitzortung!


Rain radar more information rain snow radar


Visit our other weather sites:

Template documentation
and downloads

And another site



Weather Underground History page Text

Daily Summary for January 7, 2018 Units:  English    Metric   Both
« Previous Day
Next Day »
Daily Weekly Monthly Yearly Custom
  High: Low: Average:
Temperature: TemperatureC °F 6.2 °F 7.6 °F
Dew Point: DewpointC °F 5.5 °F 6.5 °F
Humidity: Humidity % 90 % 93 %
Wind Speed: WindSpeedKMH mph 0.0 mph 14.3 mph
Wind Gust: WindSpeedGustKMH mph - -
Wind:- - ENE
Pressure: PressurehPa in 1008.4 in -
Precipitation: 1.5 in    
Historical Graphs
 
 
Tabular Data for January 7, 2018
Time Temperature Dew Point Pressure Wind Wind Speed Wind Gust Humidity Rainfall Rate (Hourly)
TemperatureC °F DewpointC °F PressurehPa in Calm     Humidity % HourlyPrecipMM in
00:04 6.2 °F 5.5 °F 1008.7 in NNE 11.1 mph 24.1 mph 95 % 0.0 in
00:06 6.2 °F 5.5 °F 1008.7 in North 13.0 mph 16.1 mph 95 % 0.0 in
00:14 6.2 °F 5.5 °F 1008.7 in NE 3.2 mph 19.3 mph 95 % 0.0 in
00:20 6.2 °F 5.5 °F 1008.7 in ENE 4.7 mph 20.9 mph 95 % 0.0 in
00:26 6.2 °F 5.5 °F 1008.7 in NNE 11.1 mph 19.3 mph 95 % 0.0 in
00:32 6.2 °F 5.5 °F 1009.0 in NE 9.7 mph 14.5 mph 95 % 0.0 in
00:40 6.3 °F 5.6 °F 1009.0 in North 14.3 mph 20.9 mph 95 % 0.0 in
00:51 6.3 °F 5.6 °F 1009.0 in NNE 3.2 mph 17.7 mph 95 % 0.0 in
00:58 6.3 °F 5.6 °F 1009.0 in NE 13.0 mph 17.7 mph 95 % 0.0 in
01:04 6.4 °F 5.7 °F 1008.7 in NE 13.0 mph 24.1 mph 95 % 0.0 in
01:10 6.4 °F 5.7 °F 1008.7 in North 16.3 mph 25.7 mph 95 % 0.0 in
01:12 6.4 °F 5.8 °F 1008.7 in NE 14.3 mph 20.9 mph 96 % 0.0 in
01:20 6.4 °F 5.8 °F 1008.7 in NE 9.7 mph 19.3 mph 96 % 0.0 in
01:28 6.4 °F 5.8 °F 1009.0 in NE 9.7 mph 22.5 mph 96 % 0.0 in
01:36 6.4 °F 5.8 °F 1009.0 in NE 7.9 mph 16.1 mph 96 % 0.0 in
01:42 6.4 °F 5.8 °F 1009.0 in NE 11.1 mph 20.9 mph 96 % 0.0 in
01:46 6.4 °F 5.8 °F 1009.0 in ENE 14.3 mph 17.7 mph 96 % 0.0 in
01:48 6.4 °F 5.8 °F 1009.0 in NE 14.3 mph 22.5 mph 96 % 0.0 in
01:57 6.4 °F 5.8 °F 1009.0 in North 7.9 mph 25.7 mph 96 % 0.0 in
02:02 6.4 °F 5.8 °F 1009.0 in NNE 11.1 mph 19.3 mph 96 % 0.0 in
02:08 6.4 °F 6.0 °F 1009.0 in NNE 9.7 mph 25.7 mph 97 % 0.0 in
02:14 6.4 °F 6.0 °F 1009.0 in NNE 7.9 mph 22.5 mph 97 % 0.0 in
02:16 6.4 °F 6.0 °F 1009.0 in NE 13.0 mph 19.3 mph 97 % 0.0 in
02:22 6.4 °F 6.0 °F 1009.0 in NNE 13.0 mph 19.3 mph 97 % 0.0 in
02:28 6.4 °F 6.0 °F 1009.0 in NE 11.1 mph 22.5 mph 97 % 0.0 in
02:30 6.5 °F 6.1 °F 1009.0 in NE 6.4 mph 22.5 mph 97 % 0.0 in
02:36 6.5 °F 6.1 °F 1009.0 in NNE 9.7 mph 22.5 mph 97 % 0.0 in
02:45 6.5 °F 6.1 °F 1009.0 in NNE 9.7 mph 17.7 mph 97 % 0.0 in
02:51 6.5 °F 6.1 °F 1008.7 in NNE 6.4 mph 20.9 mph 97 % 0.3 in
02:57 6.6 °F 6.2 °F 1009.0 in NE 16.3 mph 17.7 mph 97 % 0.3 in
03:02 6.6 °F 6.2 °F 1009.0 in North 4.7 mph 12.9 mph 97 % 0.3 in
03:10 6.6 °F 6.2 °F 1009.4 in NNE 7.9 mph 19.3 mph 97 % 0.5 in
03:16 6.7 °F 6.3 °F 1009.0 in NE 9.7 mph 20.9 mph 97 % 0.5 in
03:22 6.7 °F 6.3 °F 1009.0 in NE 7.9 mph 20.9 mph 97 % 0.5 in
03:28 6.7 °F 6.3 °F 1009.0 in NNE 11.1 mph 16.1 mph 97 % 0.8 in
03:36 6.7 °F 6.3 °F 1009.0 in NE 11.1 mph 17.7 mph 97 % 0.8 in
03:42 6.7 °F 6.3 °F 1009.0 in North 6.4 mph 12.9 mph 97 % 0.8 in
03:48 6.7 °F 6.3 °F 1009.4 in NNE 14.3 mph 22.5 mph 97 % 0.8 in
03:54 6.7 °F 6.3 °F 1009.0 in ENE 6.4 mph 19.3 mph 97 % 0.8 in
04:00 6.8 °F 6.4 °F 1009.0 in NNW 6.4 mph 24.1 mph 97 % 0.8 in
04:03 6.8 °F 6.4 °F 1009.0 in NE 13.0 mph 22.5 mph 97 % 0.8 in
04:04 6.8 °F 6.4 °F 1009.0 in NE 16.3 mph 20.9 mph 97 % 0.8 in
04:08 6.8 °F 6.4 °F 1009.0 in NNW 9.7 mph 19.3 mph 97 % 0.8 in
04:14 6.8 °F 6.4 °F 1009.0 in NNE 16.3 mph 25.7 mph 97 % 0.8 in
04:20 6.8 °F 6.4 °F 1009.0 in North 7.9 mph 22.5 mph 97 % 0.8 in
04:26 6.9 °F 6.5 °F 1009.0 in North 17.7 mph 27.4 mph 97 % 0.8 in
04:36 6.9 °F 6.5 °F 1008.7 in NE 11.1 mph 20.9 mph 97 % 0.5 in
04:46 6.9 °F 6.5 °F 1008.7 in NE 11.1 mph 29.0 mph 97 % 0.5 in
04:52 6.9 °F 6.5 °F 1008.7 in NE 20.9 mph 27.4 mph 97 % 0.5 in
05:04 6.9 °F 6.5 °F 1008.7 in NNE 19.5 mph 29.0 mph 97 % 0.3 in
05:08 6.9 °F 6.5 °F 1008.7 in NE 13.0 mph 24.1 mph 97 % 0.3 in
05:10 6.9 °F 6.5 °F 1008.7 in ENE 17.7 mph 29.0 mph 97 % 0.3 in
05:14 6.9 °F 6.5 °F 1008.7 in NE 14.3 mph 24.1 mph 97 % 0.3 in
05:20 6.9 °F 6.5 °F 1008.4 in NE 17.7 mph 27.4 mph 97 % 0.3 in
05:26 6.9 °F 6.5 °F 1008.4 in NE 19.5 mph 32.2 mph 97 % 0.3 in
05:39 6.9 °F 6.5 °F 1008.4 in NE 13.0 mph 32.2 mph 97 % 0.3 in
05:44 7.0 °F 6.6 °F 1008.4 in NE 6.4 mph 25.7 mph 97 % 0.3 in
05:50 7.0 °F 6.6 °F 1008.4 in NE 13.0 mph 29.0 mph 97 % 0.3 in
05:56 7.0 °F 6.6 °F 1008.4 in NE 19.5 mph 29.0 mph 97 % 0.3 in
06:02 7.1 °F 6.7 °F 1008.4 in NE 20.9 mph 27.4 mph 97 % 0.3 in
06:08 7.1 °F 6.7 °F 1008.7 in NNE 19.5 mph 29.0 mph 97 % 0.3 in
06:14 7.0 °F 6.6 °F 1008.4 in NE 27.4 mph 27.4 mph 97 % 0.3 in
06:22 7.0 °F 6.6 °F 1008.7 in NE 24.1 mph 27.4 mph 97 % 0.0 in
06:30 7.1 °F 6.7 °F 1008.7 in NE 17.7 mph 27.4 mph 97 % 0.0 in
06:36 7.0 °F 6.6 °F 1008.7 in NNE 20.9 mph 30.6 mph 97 % 0.0 in
06:48 7.1 °F 6.7 °F 1008.7 in NNE 27.4 mph 29.0 mph 97 % 0.0 in
06:54 7.1 °F 6.7 °F 1008.7 in NNE 17.7 mph 25.7 mph 97 % 0.0 in
07:00 7.1 °F 6.7 °F 1009.0 in NE 19.5 mph 29.0 mph 97 % 0.0 in
07:04 7.1 °F 6.7 °F 1009.0 in NNE 17.7 mph 24.1 mph 97 % 0.0 in
07:06 7.1 °F 6.7 °F 1009.0 in ENE 14.3 mph 20.9 mph 97 % 0.0 in
07:13 7.1 °F 6.7 °F 1009.0 in NE 17.7 mph 27.4 mph 97 % 0.0 in
07:19 7.1 °F 6.7 °F 1009.0 in NE 22.7 mph 27.4 mph 97 % 0.0 in
07:27 7.1 °F 6.7 °F 1009.0 in ENE 20.9 mph 30.6 mph 97 % 0.0 in
07:33 7.1 °F 6.7 °F 1009.0 in NE 25.9 mph 27.4 mph 97 % 0.0 in
07:39 7.1 °F 6.7 °F 1009.0 in NNE 28.8 mph 37.0 mph 97 % 0.0 in
07:46 7.2 °F 6.6 °F 1009.0 in NNE 19.5 mph 33.8 mph 96 % 0.0 in
07:51 7.2 °F 6.6 °F 1009.4 in NE 14.3 mph 20.9 mph 96 % 0.0 in
07:57 7.2 °F 6.6 °F 1009.4 in NE 20.9 mph 27.4 mph 96 % 0.0 in
08:03 7.2 °F 6.6 °F 1009.7 in NNE 17.7 mph 24.1 mph 96 % 0.0 in
08:09 7.3 °F 6.7 °F 1009.7 in NE 17.7 mph 25.7 mph 96 % 0.0 in
08:15 7.3 °F 6.7 °F 1009.7 in NE 9.7 mph 25.7 mph 96 % 0.0 in
08:23 7.3 °F 6.7 °F 1010.0 in NNW 9.7 mph 24.1 mph 96 % 0.0 in
08:29 7.4 °F 6.8 °F 1009.7 in North 13.0 mph 30.6 mph 96 % 0.0 in
08:35 7.4 °F 6.8 °F 1009.7 in NNW 16.3 mph 33.8 mph 96 % 0.0 in
08:41 7.4 °F 6.8 °F 1010.0 in NE 25.9 mph 35.4 mph 96 % 0.0 in
08:47 7.5 °F 6.8 °F 1010.0 in North 11.1 mph 29.0 mph 95 % 0.0 in
08:53 7.6 °F 6.9 °F 1010.0 in North 11.1 mph 24.1 mph 95 % 0.0 in
08:57 7.6 °F 6.9 °F 1010.0 in NE 17.7 mph 27.4 mph 95 % 0.0 in
09:03 7.6 °F 6.9 °F 1010.0 in NE 20.9 mph 33.8 mph 95 % 0.0 in
09:13 7.7 °F 6.9 °F 1010.0 in NE 19.5 mph 32.2 mph 95 % 0.0 in
09:21 7.7 °F 6.8 °F 1010.0 in NNE 25.9 mph 29.0 mph 94 % 0.0 in
09:23 7.7 °F 6.8 °F 1010.0 in NE 28.8 mph 33.8 mph 94 % 0.0 in
09:27 7.7 °F 6.8 °F 1010.4 in NE 20.9 mph 32.2 mph 94 % 0.0 in
09:33 7.8 °F 6.9 °F 1010.4 in NE 17.7 mph 37.0 mph 94 % 0.0 in
09:41 7.8 °F 6.9 °F 1010.7 in NNE 14.3 mph 29.0 mph 94 % 0.0 in
09:43 7.8 °F 6.9 °F 1010.7 in NNE 19.5 mph 32.2 mph 94 % 0.0 in
09:51 7.9 °F 6.8 °F 1010.7 in ENE 9.7 mph 27.4 mph 93 % 0.0 in
09:59 7.9 °F 6.8 °F 1010.7 in NE 17.7 mph 20.9 mph 93 % 0.0 in
10:05 7.9 °F 6.8 °F 1010.7 in NE 22.7 mph 29.0 mph 93 % 0.0 in
10:11 7.9 °F 6.8 °F 1011.1 in ENE 17.7 mph 25.7 mph 93 % 0.0 in
10:13 7.9 °F 6.8 °F 1011.1 in NE 13.0 mph 24.1 mph 93 % 0.0 in
10:19 8.0 °F 6.9 °F 1011.4 in NNE 22.7 mph 24.1 mph 93 % 0.0 in
10:27 8.0 °F 6.9 °F 1011.4 in NE 17.7 mph 30.6 mph 93 % 0.0 in
10:34 8.0 °F 6.9 °F 1011.4 in NE 17.7 mph 24.1 mph 93 % 0.0 in
10:39 8.0 °F 6.9 °F 1011.1 in NNE 13.0 mph 35.4 mph 93 % 0.0 in
10:45 8.1 °F 7.0 °F 1011.1 in NE 33.8 mph 33.8 mph 93 % 0.0 in
10:51 8.1 °F 7.0 °F 1011.4 in NNE 28.8 mph 29.0 mph 93 % 0.0 in
10:53 8.1 °F 7.0 °F 1011.4 in NNE 19.5 mph 29.0 mph 93 % 0.0 in
10:59 8.1 °F 7.0 °F 1011.1 in ENE 37.0 mph 38.6 mph 93 % 0.0 in
11:05 8.2 °F 7.1 °F 1011.1 in NE 41.7 mph 41.8 mph 93 % 0.0 in
11:11 8.2 °F 7.1 °F 1010.7 in NNE 25.9 mph 32.2 mph 93 % 0.0 in
11:21 8.3 °F 7.1 °F 1010.7 in NNE 27.4 mph 38.6 mph 92 % 0.0 in
11:23 8.3 °F 7.1 °F 1010.7 in NE 25.9 mph 35.4 mph 92 % 0.0 in
11:27 8.4 °F 7.2 °F 1010.7 in NE 19.5 mph 33.8 mph 92 % 0.0 in
11:35 8.4 °F 7.2 °F 1010.7 in NE 24.1 mph 33.8 mph 92 % 0.0 in
11:41 8.4 °F 7.2 °F 1010.7 in NNE 17.7 mph 29.0 mph 92 % 0.0 in
11:49 8.6 °F 7.4 °F 1010.7 in ENE 14.3 mph 25.7 mph 92 % 0.0 in
11:57 8.6 °F 7.4 °F 1011.1 in NNE 24.1 mph 27.4 mph 92 % 0.0 in
11:59 8.7 °F 7.3 °F 1011.1 in NE 22.7 mph 37.0 mph 91 % 0.0 in
12:03 8.7 °F 7.5 °F 1011.1 in NE 14.3 mph 25.7 mph 92 % 0.0 in
12:09 8.7 °F 7.3 °F 1011.4 in ENE 19.5 mph 25.7 mph 91 % 0.0 in
12:15 8.8 °F 7.4 °F 1011.4 in NE 19.5 mph 24.1 mph 91 % 0.0 in
12:21 8.8 °F 7.4 °F 1011.4 in NE 16.3 mph 25.7 mph 91 % 0.0 in
12:31 8.9 °F 7.5 °F 1011.4 in NNE 13.0 mph 27.4 mph 91 % 0.0 in
12:37 8.9 °F 7.5 °F 1011.4 in NNE 13.0 mph 30.6 mph 91 % 0.0 in
12:43 8.9 °F 7.5 °F 1011.4 in NNE 16.3 mph 29.0 mph 91 % 0.0 in
12:49 8.8 °F 7.4 °F 1011.4 in NE 25.9 mph 29.0 mph 91 % 0.0 in
12:57 8.9 °F 7.5 °F 1011.4 in NNE 20.9 mph 30.6 mph 91 % 0.0 in
13:03 8.9 °F 7.5 °F 1011.1 in NNE 16.3 mph 35.4 mph 91 % 0.0 in
13:09 8.9 °F 7.5 °F 1011.1 in NNE 28.8 mph 29.0 mph 91 % 0.0 in
13:16 8.9 °F 7.5 °F 1011.1 in East 9.7 mph 27.4 mph 91 % 0.0 in
13:21 8.9 °F 7.5 °F 1011.4 in NNE 19.5 mph 27.4 mph 91 % 0.0 in
13:23 8.9 °F 7.5 °F 1011.4 in North 25.9 mph 27.4 mph 91 % 0.0 in
13:29 8.9 °F 7.3 °F 1011.7 in NE 11.1 mph 29.0 mph 90 % 0.0 in
13:35 8.9 °F 7.3 °F 1011.4 in NE 19.5 mph 25.7 mph 90 % 0.0 in
13:41 8.9 °F 7.5 °F 1011.7 in NE 11.1 mph 27.4 mph 91 % 0.0 in
13:47 8.9 °F 7.3 °F 1011.7 in NE 13.0 mph 29.0 mph 90 % 0.0 in
13:53 8.9 °F 7.5 °F 1011.7 in NE 17.7 mph 29.0 mph 91 % 0.0 in
13:59 8.8 °F 7.2 °F 1011.7 in NE 14.3 mph 30.6 mph 90 % 0.0 in
14:07 8.8 °F 7.2 °F 1011.7 in North 22.7 mph 24.1 mph 90 % 0.0 in
14:13 8.8 °F 7.2 °F 1011.7 in NNE 27.4 mph 27.4 mph 90 % 0.0 in
14:19 8.8 °F 7.2 °F 1011.7 in NE 14.3 mph 24.1 mph 90 % 0.0 in
14:25 8.8 °F 7.2 °F 1012.1 in NNE 6.4 mph 11.3 mph 90 % 0.0 in
14:31 8.8 °F 7.2 °F 1012.1 in NNE 13.0 mph 17.7 mph 90 % 0.0 in
14:37 8.7 °F 7.2 °F 1012.1 in North 13.0 mph 22.5 mph 90 % 0.0 in
14:43 8.7 °F 7.2 °F 1011.7 in NNE 17.7 mph 29.0 mph 90 % 0.0 in
14:49 8.7 °F 7.2 °F 1011.7 in NNE 19.5 mph 25.7 mph 90 % 0.0 in
14:57 8.7 °F 7.2 °F 1012.4 in ENE 22.7 mph 30.6 mph 90 % 0.0 in
15:03 8.7 °F 7.2 °F 1012.4 in ENE 25.9 mph 25.9 mph 90 % 0.0 in
15:11 8.7 °F 7.2 °F 1012.4 in NE 17.7 mph 24.1 mph 90 % 0.0 in
15:17 8.6 °F 7.1 °F 1012.4 in NE 19.5 mph 24.1 mph 90 % 0.0 in
15:21 8.6 °F 7.1 °F 1012.4 in NE 14.3 mph 25.7 mph 90 % 0.0 in
15:23 8.6 °F 7.1 °F 1012.4 in NNE 7.9 mph 24.1 mph 90 % 0.0 in
15:27 8.6 °F 7.1 °F 1012.4 in NNE 17.7 mph 20.9 mph 90 % 0.0 in
15:33 8.6 °F 7.2 °F 1012.4 in NNE 22.7 mph 22.7 mph 91 % 0.0 in
15:37 8.5 °F 7.1 °F 1012.1 in ENE 13.0 mph 27.4 mph 91 % 0.0 in
15:43 8.5 °F 7.1 °F 1011.4 in NNE 24.1 mph 33.8 mph 91 % 0.0 in
15:49 8.4 °F 7.0 °F 1011.4 in NNE 22.7 mph 33.8 mph 91 % 0.0 in
15:57 8.4 °F 7.0 °F 1012.1 in NNE 20.9 mph 25.7 mph 91 % 0.0 in
16:05 8.3 °F 6.9 °F 1012.8 in East 3.2 mph 9.7 mph 91 % 0.0 in
16:11 8.3 °F 6.9 °F 1013.1 in ESE 1.4 mph 8.0 mph 91 % 0.0 in
16:17 8.4 °F 7.0 °F 1013.4 in East 4.7 mph 8.0 mph 91 % 0.0 in
16:23 8.3 °F 6.9 °F 1013.1 in NE 16.3 mph 19.3 mph 91 % 0.0 in
16:33 8.3 °F 6.9 °F 1013.1 in ENE 13.0 mph 17.7 mph 91 % 0.0 in
16:39 8.3 °F 6.9 °F 1012.8 in NNE 4.7 mph 19.3 mph 91 % 0.0 in
16:45 8.3 °F 6.9 °F 1013.1 in NE 4.7 mph 19.3 mph 91 % 0.0 in
16:52 8.3 °F 6.9 °F 1013.1 in North 6.4 mph 11.3 mph 91 % 0.0 in
16:57 8.2 °F 6.8 °F 1013.4 in NNE 6.4 mph 17.7 mph 91 % 0.0 in
17:03 8.3 °F 6.9 °F 1013.4 in North 7.9 mph 20.9 mph 91 % 0.0 in
17:11 8.2 °F 6.8 °F 1013.4 in NE 6.4 mph 8.0 mph 91 % 0.0 in
17:19 8.3 °F 6.9 °F 1013.4 in NE 16.3 mph 19.3 mph 91 % 0.0 in
17:28 8.3 °F 6.9 °F 1013.4 in North 6.4 mph 17.7 mph 91 % 0.0 in
17:34 8.3 °F 6.9 °F 1013.4 in NNW 11.1 mph 19.3 mph 91 % 0.0 in
17:39 8.2 °F 6.8 °F 1013.4 in NE 9.7 mph 14.5 mph 91 % 0.0 in
17:45 8.2 °F 6.8 °F 1013.4 in NNW 14.3 mph 17.7 mph 91 % 0.0 in
17:54 8.1 °F 6.7 °F 1013.4 in NNE 3.2 mph 14.5 mph 91 % 0.0 in
18:00 8.1 °F 6.7 °F 1013.4 in NE 24.1 mph 25.7 mph 91 % 0.0 in
18:04 8.1 °F 6.6 °F 1013.8 in NNE 19.5 mph 24.1 mph 90 % 0.0 in
18:10 8.2 °F 6.7 °F 1014.1 in NNE 7.9 mph 16.1 mph 90 % 0.0 in
18:16 8.1 °F 6.6 °F 1014.1 in NE 13.0 mph 17.7 mph 90 % 0.0 in
18:24 8.1 °F 6.6 °F 1013.8 in NE 16.3 mph 27.4 mph 90 % 0.0 in
18:30 8.1 °F 6.6 °F 1013.8 in NE 13.0 mph 32.2 mph 90 % 0.0 in
18:34 8.0 °F 6.5 °F 1013.8 in NE 3.2 mph 20.9 mph 90 % 0.0 in
18:36 8.0 °F 6.6 °F 1013.8 in North 19.5 mph 22.5 mph 91 % 0.0 in
18:40 8.0 °F 6.6 °F 1013.8 in NNW 9.7 mph 20.9 mph 91 % 0.0 in
18:42 8.0 °F 6.6 °F 1013.8 in NE 17.7 mph 22.5 mph 91 % 0.0 in
18:47 8.0 °F 6.6 °F 1013.8 in NE 17.7 mph 22.5 mph 91 % 0.0 in
18:54 8.0 °F 6.6 °F 1014.4 in NNE 9.7 mph 12.9 mph 91 % 0.0 in
18:58 8.0 °F 6.5 °F 1014.4 in NNE 14.3 mph 17.7 mph 90 % 0.0 in
19:00 8.0 °F 6.5 °F 1014.4 in NE 7.9 mph 17.7 mph 90 % 0.0 in
19:04 8.0 °F 6.5 °F 1014.4 in NE 14.3 mph 24.1 mph 90 % 0.0 in
19:10 8.0 °F 6.5 °F 1014.4 in North 6.4 mph 16.1 mph 90 % 0.0 in
19:16 8.0 °F 6.5 °F 1014.4 in ENE 4.7 mph 17.7 mph 90 % 0.0 in
19:22 7.9 °F 6.4 °F 1014.4 in NE 7.9 mph 17.7 mph 90 % 0.0 in
19:28 7.9 °F 6.4 °F 1014.8 in NE 14.3 mph 24.1 mph 90 % 0.0 in
19:34 7.9 °F 6.4 °F 1014.8 in NE 17.7 mph 19.3 mph 90 % 0.0 in
19:41 7.9 °F 6.4 °F 1014.8 in NNE 19.5 mph 22.5 mph 90 % 0.0 in
19:46 7.9 °F 6.4 °F 1014.8 in ENE 14.3 mph 20.9 mph 90 % 0.0 in
19:52 7.9 °F 6.4 °F 1014.8 in NE 13.0 mph 19.3 mph 90 % 0.0 in
19:59 7.9 °F 6.4 °F 1014.8 in NE 16.3 mph 20.9 mph 90 % 0.0 in
20:06 7.9 °F 6.4 °F 1014.8 in NNE 16.3 mph 24.1 mph 90 % 0.0 in
20:12 7.9 °F 6.4 °F 1014.4 in NE 16.3 mph 19.3 mph 90 % 0.0 in
20:18 7.9 °F 6.4 °F 1014.4 in NNW 7.9 mph 20.9 mph 90 % 0.0 in
20:24 7.8 °F 6.3 °F 1014.4 in NNE 6.4 mph 14.5 mph 90 % 0.0 in
20:30 7.8 °F 6.3 °F 1014.4 in NW 7.9 mph 12.9 mph 90 % 0.0 in
20:36 7.7 °F 6.2 °F 1014.4 in NNW 4.7 mph 16.1 mph 90 % 0.0 in
20:42 7.7 °F 6.3 °F 1014.4 in NW 13.0 mph 19.3 mph 91 % 0.0 in
20:48 7.7 °F 6.3 °F 1014.8 in NNE 13.0 mph 13.0 mph 91 % 0.0 in
20:54 7.7 °F 6.3 °F 1014.4 in North 17.7 mph 20.9 mph 91 % 0.0 in
21:00 7.7 °F 6.3 °F 1014.8 in NE 13.0 mph 17.7 mph 91 % 0.0 in
21:02 7.7 °F 6.3 °F 1014.8 in NNW 4.7 mph 16.1 mph 91 % 0.0 in
21:08 7.7 °F 6.3 °F 1015.1 in NE 6.4 mph 22.5 mph 91 % 0.0 in
21:18 7.8 °F 6.3 °F 1015.1 in NE 7.9 mph 17.7 mph 90 % 0.0 in
21:24 7.7 °F 6.2 °F 1015.1 in NE 7.9 mph 16.1 mph 90 % 0.0 in
21:30 7.7 °F 6.2 °F 1015.1 in NE 3.2 mph 17.7 mph 90 % 0.0 in
21:32 7.7 °F 6.2 °F 1015.5 in WNW 4.7 mph 12.9 mph 90 % 0.0 in
21:38 7.6 °F 6.2 °F 1015.1 in North 13.0 mph 16.1 mph 91 % 0.0 in
21:44 7.6 °F 6.2 °F 1015.1 in NE 6.4 mph 11.3 mph 91 % 0.0 in
21:53 7.6 °F 6.2 °F 1015.1 in NE 14.5 mph 14.5 mph 91 % 0.0 in
22:02 7.6 °F 6.2 °F 1014.8 in NNW 4.7 mph 19.3 mph 91 % 0.0 in
22:08 7.4 °F 6.0 °F 1014.4 in North 14.3 mph 17.7 mph 91 % 0.0 in
22:14 7.4 °F 6.0 °F 1014.1 in North 16.3 mph 24.1 mph 91 % 0.0 in
22:20 7.3 °F 5.9 °F 1014.1 in NNW 6.4 mph 19.3 mph 91 % 0.0 in
22:30 7.2 °F 5.8 °F 1014.4 in NW 3.2 mph 12.9 mph 91 % 0.0 in
22:32 7.2 °F 5.8 °F 1014.4 in North 13.0 mph 14.5 mph 91 % 0.0 in
22:36 7.2 °F 5.8 °F 1014.4 in Calm   6.4 mph 91 % 0.0 in
22:38 7.1 °F 5.7 °F 1014.8 in North 4.7 mph 11.3 mph 91 % 0.0 in
22:46 7.2 °F 5.8 °F 1014.4 in NW 6.4 mph 24.1 mph 91 % 0.0 in
22:54 7.1 °F 5.7 °F 1014.4 in NNE 13.0 mph 16.1 mph 91 % 0.0 in
23:02 7.1 °F 5.7 °F 1014.4 in NNE 13.0 mph 22.5 mph 91 % 0.0 in
23:12 6.9 °F 5.5 °F 1014.4 in NNW 4.7 mph 12.9 mph 91 % 0.0 in
23:18 6.9 °F 5.5 °F 1014.8 in NNE 6.4 mph 11.3 mph 91 % 0.0 in
23:26 7.0 °F 5.6 °F 1014.8 in NE 9.7 mph 14.5 mph 91 % 0.0 in
23:32 6.9 °F 5.5 °F 1014.8 in NNW 9.7 mph 16.1 mph 91 % 0.0 in
23:38 6.9 °F 5.5 °F 1015.1 in NE 4.7 mph 12.9 mph 91 % 0.0 in
23:47 6.9 °F 5.5 °F 1015.1 in ENE 11.1 mph 16.1 mph 91 % 0.0 in
23:53 6.9 °F 5.5 °F 1015.1 in NE 4.7 mph 14.5 mph 91 % 0.0 in
23:58 6.9 °F 5.7 °F 1015.1 in NE 4.7 mph 17.7 mph 92 % 0.0 in
Meteo18
Compliments of Weather Underground - 4 mb

Script developed by  Jim McMurry - jmcmurry@mwt.net Adapted for the template by  Wim van der Kuil - Leuven-Template.eu

You find our weather info also at:

European Weather Network

Weather Underground

Equipment we use:

Weather-station
Davis Vue

Weather-program
Meteobridge

Weather-server
Raspberry PI 2 B+

Provider
1 and 1

Davis Vue

Meteobridge

Raspberry PI 2 B+

1 and 1